Location: Burg
(43.1901°N, 0.3251°E)
Time: 17:33:18
(UTC+00:00)

Daily predictions for brighter satellites

Satellite Brightness Start Highest point End
(mag) Time Altitude Azimuth Time Altitude Azimuth Time Altitude Azimuth
NOSS 2-1 (E) 4.2 17:29:06 10° NNW 17:33:26 49° NE 17:39:25 10° SE
SL-16 R/B 3.2 17:30:53 10° SSE 17:35:26 25° ESE 17:40:01 10° NE
H-2A R/B 4.2 17:33:18 10° SSW 17:37:52 32° W 17:42:35 10° NNW
ARGOS 3.9 17:36:18 10° S 17:41:34 60° W 17:46:53 10° NNW
Lacrosse 5 3.2 17:41:40 10° S 17:45:42 24° ESE 17:49:43 10° ENE
Cosmos 2369 4.1 17:41:33 10° SW 17:47:10 67° WNW 17:52:51 10° NNE
BlueWalker 3 3.2 17:45:06 10° W 17:48:38 33° NNW 17:52:12 10° NE
Cosmos 1140 Rocket 3.5 17:43:36 10° S 17:48:45 70° ESE 17:53:54 10° NNE
Cosmos 1825 3.8 17:48:17 10° ESE 17:50:15 14° E 17:52:14 10° NE
Cosmos 1408 3.0 17:47:47 10° SSE 17:50:53 34° E 17:54:01 10° NNE
NOAA 6 4.0 17:45:50 10° SSE 17:50:58 84° ENE 17:56:11 10° NNW
Cosmos 1980 Rocket 2.7 17:45:39 10° SW 17:51:14 63° WNW 17:56:53 10° NNE
Cosmos 1867 4.3 17:46:07 10° NW 17:51:29 60° WSW 17:56:48 10° SSE
Radarsat Rocket 4.0 17:46:40 10° SSE 17:52:35 79° ENE 17:59:06 10° NNW
Cosmos 1655 Rocket 4.0 17:46:53 10° N 17:53:07 64° E 17:59:17 10° SSE
SMAP 4.3 17:48:51 10° S 17:53:19 48° W 17:57:50 10° NNW
Cosmos 1023 Rocket 4.5 17:51:56 10° SSW 17:57:06 87° ESE 18:02:15 10° NNE
COSMO-SKYMED 1 2.6 17:53:13 10° NNE 17:57:31 59° E 18:01:48 10° S
Cosmos 1697 Rocket 4.4 17:53:17 10° WSW 17:58:11 30° NW 18:03:08 10° N
SL-08 R/B 3.9 17:54:42 10° N 17:59:36 66° WNW 18:04:29 10° SSW
Cosmos 2228 3.2 17:56:49 10° N 18:00:53 44° ENE 18:04:56 10° SSE
Cosmos 1633 4.2 18:02:48 10° ESE 18:04:00 13° E 18:04:00 13° E
Tiangong 0.8 18:05:43 10° WSW 18:07:28 14° SSW 18:09:13 10° S
Cosmos 2263 Rocket 2.4 18:03:22 10° NNW 18:08:56 76° WSW 18:14:28 10° SSE
CZ-4 R/B 2.7 18:06:46 10° ESE 18:09:49 20° ENE 18:12:51 10° NNE
PSLV R/B 4.1 18:11:45 10° SE 18:15:07 36° ENE 18:18:32 10° N
Cosmos 1328 3.7 18:11:47 10° S 18:15:46 86° E 18:19:45 10° N
Okean O Rocket 2.7 18:13:34 10° ESE 18:17:02 24° ENE 18:20:32 10° NNE
Cosmos 2266 Rocket 4.3 18:13:04 10° NNW 18:19:21 71° W 18:25:28 10° S
Cosmos 724 4.4 18:13:42 10° SW 18:19:36 80° WNW 18:25:42 10° NNE
Cosmos 1726 Rocket 4.2 18:16:08 10° NNE 18:19:59 30° ENE 18:23:48 10° SE
Lacrosse 5 rocket 3.1 18:19:32 10° N 18:21:15 13° NNE 18:21:53 12° NNE
NOSS 2-1 (C) 4.4 18:16:48 10° NW 18:21:23 69° SW 18:27:56 10° SSE
ISS -3.3 18:18:58 10° NW 18:22:13 45° NNE 18:23:39 27° E
Cosmos 1184 Rocket 2.8 18:20:50 10° NNW 18:23:09 50° W 18:25:27 10° S
RESURS DK-1 4.1 18:23:47 10° N 18:25:54 16° NE 18:25:54 16° NE
Cosmos 1954 Rocket 4.1 18:22:24 10° S 18:27:32 55° ESE 18:32:38 10° NNE
CZ-4B DEB 4.2 18:23:52 10° SSE 18:29:19 89° WSW 18:34:49 10° NNW
Cosmos 1553 Rocket 4.3 18:24:43 10° SSE 18:30:15 39° E 18:35:51 10° NNE
COSMOS 2455 4.3 18:28:03 10° WSW 18:33:28 34° NW 18:38:55 10° NNE
CZ-4C R/B 3.8 18:31:41 10° N 18:35:31 57° WNW 18:39:08 10° SSW
CZ-4B R/B 3.2 18:30:35 10° SSE 18:35:45 55° ENE 18:41:03 10° N
Cosmos 1844 Rocket 3.0 18:35:23 10° NNW 18:40:41 42° ENE 18:43:47 23° ESE
Cosmos 2227 4.4 18:37:08 10° NNW 18:42:54 76° WSW 18:48:39 10° SSE
Timation 2 Rocket 4.4 18:37:02 10° NNW 18:43:12 65° WSW 18:49:36 10° SSE
Feng Yun 1-1 Rocket 4.5 18:39:18 10° SE 18:44:36 44° ENE 18:49:47 10° N
IRIDIUM 114 4.5 18:40:18 10° N 18:45:22 47° E 18:50:23 10° SSE
Cosmos 1763 Rocket 3.4 18:40:27 10° NNW 18:45:38 65° ENE 18:50:42 10° SSE
Cosmos 1844 4.1 18:41:30 10° NNW 18:47:01 42° ENE 18:49:24 29° ESE
Spot 1 4.1 18:47:34 39° ENE 18:48:26 45° E 18:52:19 10° S
SL-08 ROCKET BODY 4.5 18:43:30 10° N 18:49:23 76° W 18:55:11 10° S
Cosmos 2058 Rocket 3.9 18:45:22 10° N 18:48:18 30° NE 18:48:18 30° NE
Cosmos 2333 Rocket 2.8 18:49:24 10° SSE 18:54:25 34° ESE 18:54:33 34° ESE
IRIDIUM 103 4.3 18:49:23 10° N 18:54:33 58° E 18:59:41 10° SSE
MINOTAUR 4 R/B 3.8 18:53:04 28° N 18:54:44 86° WNW 18:58:08 10° SSW
Cosmos 841 Rocket 4.3 18:50:30 10° N 18:54:41 31° NE 18:54:41 31° NE
Cosmos 2360 Rocket 2.2 18:51:05 10° S 18:56:32 55° ESE 18:59:03 31° NE
ATLAS 2AS CENTAUR R/B 2.6 18:49:39 10° NW 18:56:41 75° NE 19:01:41 19° SE
YAOGAN 1 2.6 18:53:25 10° S 18:57:43 77° WSW 19:02:04 10° NNW
Cosmos 2219 Rocket 3.7 18:54:20 10° SSE 18:56:23 19° SE 18:56:23 19° SE
SL-4 R/B 3.5 19:00:43 10° NW 19:03:33 22° N 19:03:34 22° N
Nadezhda 2 Rocket 4.4 18:57:27 10° N 19:03:42 89° E 19:09:49 10° S
S3M 4.3 18:57:46 10° SSE 19:03:43 43° E 19:09:41 10° NNE
Cosmos 1892 4.0 19:01:10 10° SSW 19:04:39 39° WNW 19:08:11 10° N
Cosmos 2322 Rocket 2.1 19:01:00 10° SSW 19:06:36 85° WNW 19:10:36 20° NNE
Cosmos 540 Rocket 3.3 19:03:27 10° NNW 19:08:36 66° ENE 19:10:12 42° SE
ATLAS CENTAUR R/B 3.9 19:05:17 10° W 19:08:42 20° NW 19:12:00 10° N
Cosmos 676 Rocket 4.2 19:04:01 10° SSW 19:09:19 73° WNW 19:13:41 15° NNE
IRIDIUM 106 4.2 19:07:37 10° N 19:12:53 85° E 19:18:06 10° S
Cosmos 1461 2.8 19:10:47 10° SSW 19:15:00 86° ESE 19:15:09 83° ENE
Cosmos 2333 4.4 19:13:02 10° S 19:17:54 49° SE 19:17:54 49° SE
BREEZE M DEB (TANK) 3.8 19:15:35 10° WNW 19:18:42 31° SW 19:18:42 31° SW
SL-16 R/B 3.0 19:13:44 10° SW 19:19:12 49° WNW 19:24:12 13° NNE
Cosmos 1825 3.6 19:21:39 10° SW 19:25:05 36° WNW 19:27:13 19° NNW
Meteor 1-27 4.2 19:21:44 10° NNW 19:27:34 85° W 19:33:16 10° S
BlueWalker 3 4.2 19:25:20 10° NW 19:27:27 18° NNW 19:27:27 18° NNW
Lacrosse 5 2.1 19:23:13 10° WSW 19:28:17 65° NW 19:29:05 56° N
CSL-04 Debris 4.2 19:29:17 61° NE 19:29:17 61° NE 19:34:03 10° N
Cosmos 1892 Rocket 4.4 19:28:17 10° SSW 19:32:36 49° WNW 19:35:28 20° N
CSL-04 Rocket 4.3 19:39:31 42° N 19:39:31 42° N 19:43:06 10° N
CZ-4 R/B 2.9 19:40:39 10° SSW 19:44:28 36° W 19:48:17 10° NNW
BREEZE-M DEB (TANK) 3.2 19:32:13 10° WSW 19:45:08 82° NNW 19:45:22 80° NNE
Cosmos 1745 Rocket 4.0 19:46:44 10° N 19:53:00 78° W 19:55:06 44° S
Okean O Rocket 3.1 19:49:13 10° SSW 19:53:11 34° W 19:57:13 10° NNW
BREEZE-M DEB (TANK) 3.6 19:52:57 10° WNW 19:57:12 84° NNE 19:57:31 81° ENE
ISS -0.5 19:55:56 10° WNW 19:56:34 14° W 19:56:34 14° W
Atlas Centaur 2 4.3 20:14:58 10° SW 20:20:08 26° S 20:20:08 26° S
Cosmos 1844 Rocket 4.4 20:19:39 10° NW 20:24:21 29° WSW 20:25:34 26° SW
Cosmos 2333 Rocket 3.9 20:33:22 10° SW 20:36:39 29° W 20:36:39 29° W
Cosmos 2360 Rocket 4.1 20:36:16 10° WSW 20:40:53 25° NW 20:40:54 25° NW
Cosmos 2219 Rocket 4.5 20:37:01 10° SW 20:38:11 16° SW 20:38:11 16° SW
